Weather in Lotskino

Ukraine / Mykolaiv District     47°12′10″N   32°23′03″E
temp.,
°C
wind,
m/s
gust,
m/s
humid.,
%
clouds,
%
prec.,
mm/h
press.,
hPa
HPBL,
m
9 may, sun
sun900:00+6nnw613772 0.0 1017564
03:00+5nw410840 0.0 1019337
06:00+4nw511860 0.0 1021357
09:00+9nnw79585 0.0 10231024
12:00+13nnw79415 0.0 10232143
15:00+14nnw783995 0.0 10242231
18:00+14n574429 0.0 10252092
21:00+9n336316 0.0 102734
10 may, mon
mon1000:00+7n22655 0.0 102713
03:00+6n22705 0.0 102815
06:00+6n22743 0.0 102827
09:00+12nne34550 0.0 1028580
12:00+15n45404 0.0 10271947
15:00+17n56365 0.0 10252170
18:00+16n56427 0.0 10232084
21:00+10ne47580 0.0 1024103
11 may, tue
tue1100:00+8n46630 0.0 102289
03:00+7nw410732 0.0 1021171
06:00+7nw6147181 0.0 1019353
09:00+10nnw61162100 0.0 1018564
12:00+13nnw7867100 0.0 1017672
15:00+18n695999 0.0 10151447
18:00+12ne3888100 0.3 1016450
21:00+10ene35885 0.3 1016103
12 may, wed
wed1200:00+7nne33845 0.0 101533
03:00+6n34885 0.0 101467
06:00+7nne2588100 0.0 1013207
09:00+9ne2274100 0.1 1013512
12:00+12sw025883 0.1 10131144
15:00+14w2352100 0.1 10121388
18:00+15nw235238 0.0 1012786
21:00+10se227242 0.0 101314
13 may, thu
thu1300:00+11sse248377 0.0 1013114
03:00+9se339323 0.0 101346
06:00+9e3695100 0.0 1012124
09:00+16ese576186 0.0 1012549
12:00+21se6753100 0.0 10101341
15:00+24sse573942 0.0 10091992
18:00+22ssw46495 0.0 10091047
21:00+14ssw336098 0.0 100928